QPF
0.02 0.03 0.04 0.05 0.05 0.06 0.08 0.10 0.11 0.10 0.10 0.08 0.08 0.10 0.12 0.12 0.11 0.09 0.07 0.08 0.09 0.07 0.06 0.05 0.05 0.05 0.04 0.04 0.05 0.05 0.06 0.06 0.06 0.05 0.04 0.03 0.03 0.04 0.05 0.05 0.06 0.06 0.05
0.03 0.04 0.05 0.06 0.07 0.10 0.13 0.14 0.15 0.15 0.13 0.10 0.11 0.12 0.15 0.14 0.10 0.08 0.07 0.06 0.06 0.06 0.05 0.05 0.05 0.06 0.06 0.07 0.06 0.06 0.05 0.05 0.05 0.05 0.04 0.03 0.02 0.02 0.03 0.05 0.05 0.05 0.05
0.02 0.05 0.07 0.08 0.10 0.13 0.16 0.15 0.12 0.11 0.10 0.10 0.11 0.10 0.10 0.11 0.10 0.09 0.07 0.07 0.07 0.06 0.07 0.05 0.06 0.07 0.08 0.07 0.08 0.08 0.06 0.05 0.05 0.06 0.05 0.03 0.01 0.01 0.01 0.02 0.03 0.04 0.04
0.06 0.07 0.08 0.08 0.09 0.09 0.09 0.08 0.08 0.08 0.09 0.09 0.08 0.08 0.08 0.09 0.09 0.07 0.06 0.06 0.07 0.08 0.08 0.09 0.09 0.09 0.08 0.06 0.07 0.09 0.08 0.07 0.05 0.05 0.04 0.03 0.03 0.03 0.02 0.01 0.02 0.03 0.03
0.05 0.04 0.04 0.04 0.05 0.06 0.06 0.05 0.06 0.06 0.07 0.09 0.09 0.07 0.07 0.08 0.09 0.09 0.06 0.04 0.05 0.07 0.10 0.12 0.12 0.11 0.09 0.07 0.09 0.10 0.09 0.08 0.06 0.04 0.04 0.03 0.04 0.04 0.04 0.03 0.02 0.02 0.02
0.04 0.02 0.03 0.04 0.04 0.04 0.04 0.04 0.05 0.05 0.04 0.04 0.05 0.06 0.07 0.07 0.06 0.07 0.07 0.05 0.04 0.06 0.10 0.13 0.12 0.10 0.10 0.10 0.10 0.10 0.07 0.06 0.07 0.06 0.05 0.05 0.05 0.06 0.06 0.05 0.02 0.02 0.03
0.03 0.02 0.02 0.02 0.03 0.03 0.03 0.03 0.02 0.03 0.05 0.04 0.04 0.04 0.05 0.07 0.05 0.04 0.05 0.05 0.04 0.05 0.08 0.11 0.10 0.09 0.07 0.08 0.09 0.09 0.08 0.06 0.05 0.04 0.04 0.04 0.04 0.04 0.04 0.04 0.02 0.02 0.02
0.03 0.03 0.02 0.02 0.02 0.02 0.03 0.03 0.03 0.05 0.07 0.07 0.06 0.06 0.05 0.05 0.06 0.06 0.07 0.06 0.06 0.06 0.08 0.08 0.07 0.07 0.08 0.08 0.05 0.05 0.05 0.04 0.04 0.04 0.04 0.04 0.05 0.05 0.05 0.04 0.04 0.03 0.03
0.04 0.04 0.03 0.03 0.02 0.01 0.02 0.03 0.05 0.07 0.09 0.09 0.06 0.06 0.06 0.05 0.05 0.05 0.05 0.04 0.05 0.05 0.06 0.07 0.05 0.05 0.06 0.05 0.04 0.03 0.03 0.04 0.04 0.04 0.05 0.05 0.05 0.06 0.06 0.05 0.04 0.04 0.04
0.04 0.04 0.03 0.02 0.02 0.01 0.02 0.03 0.04 0.06 0.09 0.09 0.05 0.04 0.06 0.05 0.04 0.04 0.03 0.03 0.04 0.04 0.04 0.05 0.04 0.03 0.03 0.03 0.02 0.02 0.03 0.03 0.04 0.05 0.06 0.09 0.09 0.08 0.08 0.08 0.07 0.06 0.06
0.03 0.04 0.03 0.02 0.02 0.02 0.02 0.03 0.06 0.07 0.08 0.09 0.06 0.04 0.05 0.06 0.05 0.05 0.03 0.03 0.04 0.03 0.03 0.03 0.02 0.02 0.02 0.02 0.02 0.02 0.03 0.03 0.04 0.07 0.09 0.10 0.09 0.09 0.10 0.10 0.09 0.07 0.06
0.03 0.05 0.04 0.03 0.02 0.03 0.04 0.05 0.07 0.09 0.10 0.12 0.12 0.09 0.07 0.06 0.06 0.05 0.05 0.06 0.04 0.03 0.03 0.01 0.01 0.02 0.02 0.02 0.02 0.01 0.01 0.02 0.03 0.05 0.07 0.07 0.07 0.07 0.07 0.09 0.10 0.08 0.06
0.01 0.04 0.05 0.04 0.02 0.02 0.04 0.06 0.08 0.11 0.11 0.09 0.07 0.07 0.08 0.06 0.05 0.04 0.05 0.06 0.05 0.03 0.02 0.01 0.02 0.03 0.02 0.02 0.02 0.01 0.02 0.01 0.02 0.02 0.03 0.03 0.04 0.05 0.05 0.06 0.08 0.08 0.07
0.00 0.01 0.02 0.02 0.02 0.03 0.04 0.07 0.11 0.14 0.13 0.08 0.07 0.06 0.06 0.06 0.05 0.04 0.04 0.06 0.05 0.03 0.02 0.01 0.02 0.04 0.02 0.01 0.02 0.02 0.03 0.03 0.02 0.02 0.02 0.02 0.03 0.03 0.04 0.04 0.05 0.06 0.07
0.00 0.01 0.01 0.03 0.03 0.05 0.06 0.07 0.08 0.09 0.10 0.10 0.09 0.07 0.06 0.06 0.05 0.05 0.04 0.07 0.07 0.04 0.02 0.02 0.04 0.05 0.03 0.03 0.03 0.03 0.03 0.03 0.02 0.02 0.02 0.01 0.01 0.01 0.02 0.03 0.04 0.04 0.05
0.01 0.01 0.02 0.03 0.04 0.05 0.04 0.03 0.03 0.04 0.05 0.08 0.09 0.06 0.04 0.06 0.06 0.08 0.06 0.06 0.05 0.03 0.02 0.03 0.02 0.02 0.03 0.04 0.04 0.03 0.02 0.02 0.02 0.02 0.01 0.01 0.01 0.01 0.02 0.02 0.02 0.03 0.03
0.01 0.01 0.02 0.02 0.03 0.03 0.03 0.03 0.03 0.03 0.04 0.04 0.05 0.05 0.06 0.07 0.09 0.10 0.08 0.07 0.04 0.03 0.03 0.03 0.03 0.02 0.01 0.01 0.01 0.01 0.01 0.01 0.01 0.02 0.03 0.02 0.01 0.01 0.02 0.03 0.03 0.03 0.04
0.02 0.02 0.02 0.01 0.01 0.02 0.03 0.03 0.03 0.03 0.03 0.03 0.04 0.05 0.07 0.07 0.09 0.09 0.08 0.06 0.04 0.04 0.04 0.03 0.03 0.02 0.02 0.02 0.02 0.02 0.01 0.01 0.01 0.02 0.03 0.03 0.02 0.01 0.01 0.02 0.02 0.03 0.05
0.03 0.04 0.02 0.01 0.01 0.01 0.01 0.02 0.03 0.02 0.02 0.02 0.04 0.05 0.05 0.05 0.07 0.07 0.06 0.06 0.05 0.05 0.05 0.03 0.03 0.02 0.02 0.03 0.03 0.03 0.03 0.01 0.01 0.02 0.01 0.01 0.01 0.01 0.01 0.02 0.03 0.04 0.04
0.04 0.05 0.03 0.02 0.01 0.00 0.01 0.01 0.02 0.01 0.01 0.02 0.03 0.04 0.04 0.04 0.05 0.05 0.05 0.05 0.04 0.05 0.04 0.03 0.02 0.02 0.01 0.02 0.02 0.02 0.02 0.01 0.01 0.01 0.01 0.01 0.01 0.01 0.01 0.01 0.02 0.04 0.03
0.05 0.04 0.03 0.03 0.02 0.01 0.01 0.01 0.01 0.01 0.01 0.01 0.02 0.04 0.04 0.04 0.03 0.03 0.03 0.04 0.03 0.03 0.02 0.03 0.02 0.01 0.01 0.02 0.02 0.02 0.02 0.01 0.01 0.01 0.01 0.01 0.01 0.01 0.01 0.01 0.02 0.03 0.03
0.06 0.04 0.03 0.04 0.03 0.00 0.01 0.02 0.01 0.01 0.01 0.02 0.03 0.03 0.03 0.03 0.03 0.04 0.04 0.04 0.03 0.02 0.02 0.03 0.02 0.02 0.02 0.02 0.02 0.02 0.02 0.02 0.02 0.01 0.01 0.01 0.01 0.01 0.02 0.02 0.02 0.03 0.03
0.07 0.05 0.04 0.04 0.03 0.00 0.01 0.02 0.02 0.01 0.01 0.02 0.02 0.02 0.02 0.02 0.03 0.03 0.03 0.03 0.02 0.02 0.02 0.02 0.02 0.01 0.02 0.02 0.02 0.02 0.02 0.01 0.01 0.01 0.01 0.01 0.02 0.01 0.01 0.02 0.03 0.03 0.03
0.06 0.04 0.03 0.03 0.02 0.01 0.01 0.02 0.02 0.01 0.01 0.02 0.02 0.01 0.01 0.02 0.03 0.03 0.03 0.02 0.01 0.01 0.02 0.02 0.02 0.01 0.01 0.01 0.01 0.01 0.01 0.02 0.01 0.01 0.01 0.02 0.02 0.01 0.01 0.02 0.03 0.03 0.02
0.04 0.03 0.03 0.03 0.03 0.01 0.01 0.01 0.01 0.01 0.02 0.02 0.01 0.01 0.02 0.03 0.03 0.03 0.03 0.02 0.02 0.02 0.02 0.02 0.02 0.01 0.01 0.01 0.01 0.02 0.02 0.02 0.01 0.02 0.03 0.03 0.03 0.02 0.01 0.01 0.02 0.03 0.02
0.03 0.03 0.03 0.03 0.03 0.02 0.01 0.01 0.01 0.01 0.03 0.02 0.02 0.02 0.04 0.05 0.04 0.03 0.02 0.02 0.02 0.03 0.02 0.02 0.02 0.01 0.02 0.02 0.03 0.05 0.04 0.02 0.02 0.02 0.03 0.04 0.03 0.02 0.01 0.01 0.01 0.02 0.02
MSLP
1014.01 1013.47 1012.99 1012.54 1012.08 1011.59 1011.05 1010.47 1009.83 1009.16 1008.47 1007.77 1007.08 1006.42 1005.82 1005.31 1004.90 1004.63 1004.51 1004.56 1004.79 1005.17 1005.69 1006.31 1006.98 1007.67 1008.32 1008.92 1009.43 1009.86 1010.21 1010.48 1010.69 1010.87 1011.01 1011.13 1011.22 1011.29 1011.31 1011.30 1011.25 1011.17 1011.09
1014.05 1013.47 1012.95 1012.44 1011.93 1011.40 1010.84 1010.25 1009.65 1009.03 1008.40 1007.77 1007.13 1006.50 1005.88 1005.30 1004.78 1004.37 1004.10 1004.00 1004.08 1004.36 1004.81 1005.40 1006.08 1006.80 1007.50 1008.15 1008.71 1009.19 1009.57 1009.88 1010.13 1010.34 1010.53 1010.70 1010.85 1010.97 1011.05 1011.08 1011.06 1011.00 1010.92
1013.91 1013.31 1012.74 1012.18 1011.62 1011.05 1010.47 1009.89 1009.32 1008.76 1008.22 1007.67 1007.11 1006.52 1005.90 1005.28 1004.68 1004.15 1003.74 1003.49 1003.44 1003.60 1003.96 1004.49 1005.15 1005.87 1006.60 1007.28 1007.89 1008.40 1008.83 1009.18 1009.48 1009.75 1010.00 1010.23 1010.45 1010.64 1010.78 1010.88 1010.92 1010.90 1010.85
1013.65 1013.02 1012.41 1011.80 1011.19 1010.57 1009.97 1009.39 1008.85 1008.35 1007.87 1007.41 1006.92 1006.38 1005.79 1005.16 1004.51 1003.89 1003.37 1003.00 1002.83 1002.88 1003.15 1003.62 1004.24 1004.94 1005.67 1006.38 1007.02 1007.58 1008.05 1008.44 1008.79 1009.11 1009.41 1009.71 1010.00 1010.26 1010.48 1010.66 1010.77 1010.82 1010.82
1013.32 1012.67 1012.02 1011.37 1010.70 1010.03 1009.38 1008.78 1008.24 1007.76 1007.34 1006.92 1006.49 1006.01 1005.46 1004.83 1004.17 1003.51 1002.93 1002.48 1002.22 1002.19 1002.38 1002.80 1003.38 1004.06 1004.79 1005.51 1006.17 1006.76 1007.27 1007.71 1008.10 1008.46 1008.80 1009.15 1009.49 1009.82 1010.11 1010.36 1010.55 1010.69 1010.77
1013.01 1012.33 1011.65 1010.94 1010.21 1009.47 1008.76 1008.10 1007.53 1007.03 1006.61 1006.21 1005.81 1005.36 1004.84 1004.24 1003.59 1002.93 1002.33 1001.86 1001.56 1001.49 1001.65 1002.03 1002.59 1003.26 1003.99 1004.72 1005.41 1006.02 1006.55 1007.02 1007.43 1007.81 1008.18 1008.56 1008.93 1009.30 1009.65 1009.96 1010.24 1010.46 1010.64
1012.75 1012.05 1011.32 1010.56 1009.75 1008.94 1008.14 1007.41 1006.76 1006.20 1005.73 1005.31 1004.89 1004.45 1003.95 1003.37 1002.75 1002.13 1001.56 1001.11 1000.83 1000.77 1000.94 1001.32 1001.88 1002.56 1003.30 1004.05 1004.75 1005.38 1005.94 1006.41 1006.83 1007.22 1007.58 1007.95 1008.33 1008.71 1009.10 1009.47 1009.82 1010.13 1010.41
1012.56 1011.82 1011.05 1010.23 1009.35 1008.45 1007.56 1006.73 1005.98 1005.33 1004.77 1004.27 1003.81 1003.34 1002.83 1002.27 1001.69 1001.12 1000.61 1000.23 1000.02 1000.01 1000.23 1000.66 1001.26 1001.97 1002.74 1003.51 1004.23 1004.88 1005.45 1005.93 1006.34 1006.71 1007.05 1007.40 1007.75 1008.13 1008.52 1008.92 1009.33 1009.73 1010.10
1012.41 1011.64 1010.82 1009.95 1009.00 1008.03 1007.05 1006.11 1005.25 1004.48 1003.81 1003.21 1002.66 1002.12 1001.58 1001.02 1000.47 999.96 999.53 999.24 999.13 999.23 999.54 1000.05 1000.71 1001.48 1002.30 1003.11 1003.86 1004.54 1005.11 1005.59 1005.99 1006.33 1006.64 1006.94 1007.26 1007.61 1007.99 1008.40 1008.85 1009.30 1009.76
1012.27 1011.46 1010.60 1009.68 1008.69 1007.65 1006.60 1005.58 1004.62 1003.74 1002.94 1002.22 1001.55 1000.91 1000.30 999.72 999.19 998.73 998.38 998.20 998.21 998.43 998.87 999.49 1000.25 1001.10 1001.99 1002.85 1003.65 1004.35 1004.94 1005.42 1005.81 1006.13 1006.40 1006.66 1006.94 1007.24 1007.60 1008.01 1008.46 1008.96 1009.47
1012.09 1011.24 1010.35 1009.40 1008.38 1007.32 1006.23 1005.16 1004.12 1003.13 1002.22 1001.36 1000.56 999.81 999.11 998.47 997.92 997.50 997.24 997.16 997.31 997.67 998.24 999.00 999.88 1000.83 1001.80 1002.74 1003.59 1004.33 1004.95 1005.45 1005.83 1006.14 1006.39 1006.62 1006.85 1007.12 1007.44 1007.82 1008.27 1008.77 1009.30
1011.87 1010.99 1010.07 1009.10 1008.09 1007.02 1005.93 1004.83 1003.75 1002.69 1001.66 1000.67 999.73 998.85 998.04 997.32 996.75 996.34 996.15 996.18 996.46 996.97 997.69 998.59 999.61 1000.68 1001.74 1002.75 1003.67 1004.46 1005.12 1005.64 1006.05 1006.36 1006.60 1006.81 1007.02 1007.25 1007.54 1007.89 1008.30 1008.78 1009.30
1011.63 1010.71 1009.77 1008.81 1007.81 1006.77 1005.70 1004.61 1003.50 1002.38 1001.26 1000.15 999.07 998.05 997.11 996.32 995.70 995.30 995.17 995.30 995.71 996.38 997.26 998.31 999.46 1000.65 1001.81 1002.90 1003.88 1004.73 1005.43 1005.99 1006.42 1006.75 1007.00 1007.22 1007.41 1007.62 1007.88 1008.19 1008.56 1008.99 1009.46
1011.41 1010.45 1009.50 1008.54 1007.57 1006.57 1005.54 1004.47 1003.35 1002.18 1000.98 999.76 998.55 997.40 996.35 995.46 994.81 994.42 994.34 994.57 995.12 995.93 996.98 998.18 999.46 1000.77 1002.02 1003.18 1004.22 1005.10 1005.84 1006.44 1006.90 1007.26 1007.54 1007.77 1007.97 1008.17 1008.39 1008.66 1008.98 1009.35 1009.75
1011.26 1010.26 1009.30 1008.35 1007.41 1006.45 1005.46 1004.41 1003.29 1002.09 1000.81 999.50 998.17 996.90 995.75 994.79 994.11 993.74 993.72 994.06 994.74 995.71 996.90 998.24 999.65 1001.04 1002.37 1003.58 1004.65 1005.57 1006.33 1006.95 1007.44 1007.83 1008.14 1008.39 1008.60 1008.80 1009.00 1009.23 1009.49 1009.78 1010.10
1011.22 1010.20 1009.23 1008.29 1007.37 1006.44 1005.48 1004.45 1003.32 1002.09 1000.76 999.36 997.94 996.58 995.36 994.36 993.67 993.34 993.40 993.85 994.65 995.76 997.08 998.54 1000.04 1001.51 1002.88 1004.11 1005.18 1006.10 1006.86 1007.48 1007.98 1008.39 1008.72 1008.99 1009.22 1009.41 1009.60 1009.79 1009.99 1010.21 1010.45
1011.30 1010.27 1009.30 1008.37 1007.47 1006.57 1005.63 1004.61 1003.48 1002.22 1000.85 999.39 997.92 996.51 995.25 994.24 993.58 993.31 993.46 994.01 994.94 996.16 997.59 999.13 1000.69 1002.18 1003.55 1004.76 1005.80 1006.68 1007.40 1008.00 1008.49 1008.90 1009.24 1009.52 1009.75 1009.95 1010.13 1010.28 1010.44 1010.60 1010.76
1011.49 1010.48 1009.52 1008.61 1007.73 1006.86 1005.93 1004.92 1003.79 1002.53 1001.14 999.67 998.19 996.77 995.53 994.57 993.96 993.77 994.01 994.66 995.68 996.99 998.47 1000.05 1001.60 1003.06 1004.38 1005.53 1006.50 1007.30 1007.96 1008.50 1008.95 1009.34 1009.67 1009.96 1010.20 1010.39 1010.56 1010.69 1010.80 1010.91 1011.01
1011.76 1010.77 1009.85 1008.98 1008.13 1007.29 1006.39 1005.41 1004.30 1003.06 1001.70 1000.27 998.82 997.47 996.29 995.41 994.89 994.79 995.12 995.84 996.91 998.24 999.73 1001.27 1002.77 1004.15 1005.37 1006.40 1007.26 1007.96 1008.53 1008.99 1009.39 1009.74 1010.05 1010.32 1010.56 1010.75 1010.91 1011.02 1011.11 1011.17 1011.23
1012.04 1011.12 1010.26 1009.44 1008.65 1007.85 1007.01 1006.07 1005.02 1003.85 1002.56 1001.22 999.87 998.63 997.57 996.80 996.39 996.38 996.77 997.53 998.60 999.90 1001.32 1002.76 1004.14 1005.38 1006.45 1007.35 1008.07 1008.64 1009.11 1009.49 1009.83 1010.13 1010.41 1010.67 1010.89 1011.08 1011.23 1011.33 1011.40 1011.44 1011.46
1012.31 1011.48 1010.70 1009.95 1009.23 1008.51 1007.73 1006.88 1005.93 1004.86 1003.71 1002.50 1001.32 1000.24 999.33 998.70 998.40 998.47 998.89 999.64 1000.65 1001.85 1003.13 1004.41 1005.62 1006.68 1007.58 1008.31 1008.89 1009.34 1009.70 1010.01 1010.28 1010.55 1010.80 1011.04 1011.25 1011.43 1011.57 1011.67 1011.72 1011.75 1011.75
1012.55 1011.82 1011.14 1010.48 1009.85 1009.21 1008.53 1007.79 1006.97 1006.05 1005.07 1004.06 1003.07 1002.18 1001.46 1000.98 1000.78 1000.90 1001.32 1002.00 1002.90 1003.94 1005.04 1006.11 1007.10 1007.96 1008.67 1009.24 1009.68 1010.02 1010.30 1010.55 1010.78 1011.01 1011.24 1011.47 1011.67 1011.85 1011.98 1012.07 1012.11 1012.12 1012.11
1012.78 1012.15 1011.56 1011.01 1010.47 1009.92 1009.35 1008.74 1008.06 1007.33 1006.54 1005.74 1004.98 1004.30 1003.76 1003.43 1003.32 1003.46 1003.84 1004.42 1005.17 1006.00 1006.87 1007.71 1008.47 1009.12 1009.66 1010.08 1010.40 1010.67 1010.89 1011.10 1011.31 1011.53 1011.75 1011.96 1012.16 1012.33 1012.45 1012.53 1012.56 1012.56 1012.54
1013.01 1012.48 1011.99 1011.51 1011.06 1010.61 1010.15 1009.66 1009.14 1008.58 1008.00 1007.42 1006.87 1006.40 1006.04 1005.83 1005.79 1005.93 1006.24 1006.70 1007.26 1007.88 1008.51 1009.11 1009.65 1010.11 1010.49 1010.79 1011.04 1011.26 1011.45 1011.65 1011.87 1012.09 1012.31 1012.52 1012.71 1012.86 1012.97 1013.04 1013.06 1013.05 1013.01
1013.29 1012.85 1012.42 1012.02 1011.63 1011.26 1010.88 1010.51 1010.12 1009.72 1009.32 1008.94 1008.59 1008.30 1008.09 1007.99 1007.99 1008.12 1008.35 1008.66 1009.04 1009.45 1009.86 1010.25 1010.60 1010.91 1011.16 1011.39 1011.59 1011.79 1012.00 1012.21 1012.44 1012.67 1012.89 1013.10 1013.28 1013.41 1013.51 1013.55 1013.57 1013.54 1013.50
1013.65 1013.26 1012.89 1012.54 1012.20 1011.87 1011.56 1011.26 1010.98 1010.70 1010.45 1010.22 1010.03 1009.89 1009.79 1009.76 1009.80 1009.89 1010.04 1010.23 1010.45 1010.68 1010.92 1011.14 1011.34 1011.53 1011.72 1011.90 1012.10 1012.30 1012.53 1012.76 1013.01 1013.25 1013.48 1013.67 1013.83 1013.95 1014.02 1014.04 1014.04 1014.00 1013.95
Thickness
5724 5724 5723 5722 5720 5718 5715 5712 5709 5707 5704 5701 5699 5696 5694 5692 5690 5689 5689 5688 5686 5683 5681 5679 5677 5675 5673 5671 5671 5669 5667 5667 5667 5665 5666 5668 5669 5671 5672 5672 5673 5673 5674
5715 5715 5714 5713 5711 5709 5706 5704 5701 5700 5697 5695 5693 5690 5688 5685 5684 5682 5682 5681 5680 5678 5677 5674 5672 5670 5667 5666 5665 5663 5661 5660 5660 5658 5656 5656 5659 5664 5667 5667 5667 5668 5668
5707 5706 5706 5704 5703 5700 5698 5698 5695 5693 5691 5689 5685 5683 5680 5679 5677 5676 5675 5675 5674 5673 5671 5669 5666 5664 5662 5660 5659 5658 5656 5654 5654 5653 5651 5649 5650 5654 5658 5660 5661 5662 5662
5701 5699 5698 5697 5695 5693 5692 5690 5688 5685 5683 5681 5677 5673 5670 5668 5669 5669 5669 5669 5668 5667 5666 5664 5661 5659 5657 5655 5654 5652 5651 5649 5648 5647 5646 5646 5646 5644 5648 5652 5654 5655 5656
5695 5692 5691 5690 5689 5687 5684 5682 5680 5677 5675 5674 5671 5667 5664 5663 5662 5663 5662 5662 5661 5661 5660 5658 5656 5654 5652 5651 5649 5647 5646 5644 5643 5642 5641 5640 5640 5640 5639 5642 5646 5648 5651
5689 5687 5686 5684 5682 5680 5677 5675 5672 5670 5668 5666 5664 5662 5659 5657 5656 5656 5655 5655 5654 5654 5654 5653 5651 5649 5648 5646 5644 5643 5641 5640 5639 5637 5636 5635 5634 5634 5635 5635 5638 5640 5644
5682 5680 5678 5676 5674 5672 5670 5667 5665 5663 5662 5661 5659 5656 5654 5652 5651 5651 5650 5649 5649 5648 5648 5647 5646 5645 5643 5642 5640 5638 5636 5636 5634 5633 5633 5632 5631 5631 5630 5630 5631 5632 5636
5676 5673 5671 5668 5666 5665 5663 5660 5659 5657 5657 5655 5654 5653 5650 5648 5647 5646 5646 5645 5645 5644 5644 5643 5642 5640 5639 5637 5635 5633 5632 5631 5631 5630 5630 5628 5628 5627 5627 5626 5625 5625 5628
5668 5666 5664 5662 5660 5658 5656 5654 5652 5652 5651 5650 5649 5649 5647 5645 5643 5642 5641 5641 5641 5640 5641 5639 5637 5635 5634 5632 5630 5628 5627 5627 5626 5626 5626 5624 5625 5624 5623 5622 5621 5619 5621
5661 5659 5657 5655 5654 5652 5650 5648 5647 5646 5646 5645 5644 5644 5642 5641 5640 5638 5637 5637 5636 5637 5636 5635 5633 5631 5629 5627 5625 5624 5623 5622 5622 5621 5621 5620 5620 5619 5619 5618 5617 5617 5616
5653 5652 5650 5649 5648 5646 5644 5643 5642 5641 5641 5640 5639 5638 5637 5635 5634 5633 5633 5632 5632 5632 5631 5630 5628 5626 5624 5623 5621 5620 5619 5618 5616 5616 5616 5615 5614 5614 5613 5613 5613 5612 5612
5648 5646 5644 5642 5641 5640 5639 5638 5636 5635 5636 5636 5635 5634 5633 5631 5629 5629 5629 5629 5628 5628 5627 5626 5624 5622 5621 5619 5617 5616 5615 5613 5612 5611 5611 5610 5610 5608 5608 5608 5608 5607 5607
5643 5641 5639 5636 5634 5633 5633 5632 5631 5631 5631 5631 5630 5629 5628 5627 5626 5625 5625 5625 5625 5625 5624 5622 5620 5619 5617 5615 5613 5611 5610 5608 5607 5606 5605 5605 5604 5603 5603 5604 5603 5602 5602
5637 5635 5632 5630 5629 5628 5628 5628 5628 5628 5627 5626 5625 5624 5623 5623 5623 5623 5622 5622 5622 5621 5620 5618 5616 5615 5613 5611 5609 5607 5605 5603 5602 5601 5601 5600 5599 5599 5599 5599 5598 5597 5595
5632 5630 5628 5626 5625 5624 5624 5623 5623 5623 5622 5621 5621 5620 5620 5620 5620 5620 5620 5619 5619 5618 5616 5614 5612 5610 5609 5607 5605 5603 5601 5599 5598 5597 5596 5596 5596 5596 5594 5593 5592 5590 5589
5628 5627 5625 5623 5621 5620 5619 5619 5619 5619 5618 5617 5617 5617 5617 5616 5617 5617 5616 5615 5614 5613 5611 5609 5608 5606 5605 5603 5601 5599 5596 5594 5593 5592 5592 5592 5591 5591 5589 5588 5587 5585 5584
5624 5623 5621 5619 5618 5616 5615 5614 5615 5615 5614 5614 5614 5614 5614 5613 5614 5614 5613 5611 5610 5609 5608 5606 5604 5603 5601 5600 5598 5596 5594 5592 5589 5588 5587 5587 5586 5585 5584 5583 5582 5580 5579
5621 5619 5618 5616 5615 5613 5612 5611 5611 5611 5611 5611 5611 5611 5610 5610 5610 5610 5609 5608 5607 5605 5604 5602 5601 5600 5599 5597 5595 5593 5591 5589 5587 5585 5583 5582 5580 5579 5578 5577 5576 5575 5575
5618 5616 5615 5613 5612 5610 5608 5608 5608 5608 5608 5608 5608 5608 5607 5606 5606 5606 5605 5605 5604 5602 5601 5599 5598 5597 5596 5594 5592 5590 5588 5586 5584 5582 5580 5578 5576 5574 5572 5571 5571 5571 5571
5617 5615 5614 5612 5609 5607 5605 5604 5604 5605 5605 5606 5605 5605 5604 5603 5603 5603 5602 5601 5601 5600 5598 5597 5596 5594 5593 5591 5589 5587 5585 5583 5581 5579 5576 5574 5572 5570 5568 5566 5565 5565 5566
5615 5614 5611 5609 5607 5605 5603 5602 5602 5602 5603 5604 5603 5602 5602 5601 5601 5600 5600 5599 5598 5597 5595 5595 5594 5592 5590 5588 5587 5584 5582 5580 5578 5576 5574 5571 5569 5566 5564 5562 5561 5560 5559
5613 5611 5608 5606 5604 5602 5599 5599 5599 5601 5602 5602 5601 5600 5600 5599 5599 5598 5598 5597 5595 5594 5593 5592 5591 5589 5588 5586 5584 5582 5579 5576 5574 5572 5570 5568 5565 5563 5562 5560 5558 5556 5555
5610 5608 5605 5604 5602 5599 5597 5596 5599 5600 5600 5600 5599 5599 5598 5597 5597 5596 5596 5595 5593 5591 5590 5589 5588 5587 5586 5583 5581 5578 5576 5574 5571 5569 5567 5564 5563 5561 5560 5558 5556 5554 5553
5606 5605 5602 5601 5600 5599 5597 5597 5598 5599 5598 5598 5598 5597 5597 5597 5596 5596 5595 5593 5591 5590 5589 5588 5587 5585 5583 5581 5579 5576 5574 5572 5569 5567 5565 5562 5560 5558 5556 5555 5553 5551 5549
5604 5602 5600 5599 5599 5598 5597 5598 5598 5598 5597 5597 5597 5597 5597 5597 5596 5596 5594 5594 5592 5591 5589 5588 5585 5583 5581 5580 5577 5574 5572 5570 5567 5564 5562 5560 5558 5556 5554 5552 5550 5547 5544
5601 5600 5599 5599 5599 5598 5597 5598 5598 5598 5597 5597 5597 5597 5597 5598 5597 5596 5596 5595 5593 5591 5589 5586 5584 5582 5580 5578 5576 5573 5570 5567 5564 5561 5560 5558 5555 5553 5550 5548 5546 5543 5540